Back to catalog

ARIANE 5 DEB

SYLDA

AliveGTO
NORAD 27463·DEBRIS·🇫🇷 France

Launched Jul 5, 2002 from Guiana Space Centre

Loading…

TLE

FreshSource: Space-Track

Epoch: Sep 14, 2026, 14:21 UTC

1 27463U 02035D   26257.59800134  .00000017  00000-0  19089-2 0  9991
2 27463   5.9298 344.4617 7140674 307.7650 198.4455  2.26922212200144

Track ARIANE 5 DEB in real time with AllMySat

Download on the App Store